1315440029206,0.880035
1315440089206,0.879054
1315440149206,0.873850
1315440209206,0.869947
1315440269206,0.863605
1315440329206,0.861943
1315440389206,0.859822
1315440449206,0.853854
1315440509206,0.862807
1315440569206,0.855582
1315440629206,0.855956
1315440689206,0.863297
1315440749206,0.854307
1315440809206,0.852282
1315440869206,0.861339
1315440929206,0.845274
1315440989206,0.844686
1315441049206,0.849627
1315441109206,0.850138
1315441169206,0.841152
1315441229206,0.838991
1315441289206,0.840468
1315441349206,0.831149
1315441409206,0.832502
1315441469206,0.834209
1315441529206,0.828293
1315441589206,0.831072
1315441649206,0.829502
1315441709206,0.817151
1315441769206,0.818092
1315441829206,0.818900
1315441889206,0.820787
1315441949206,0.817120
1315442009206,0.815952
1315442069206,0.814540
1315442129206,0.815918
1315442189206,0.809199
1315442249206,0.812699
1315442309206,0.814547
1315442369206,0.814050
1315442429206,0.811161
1315442489206,0.815892
1315442549206,0.805275
1315442609206,0.809941
1315442669206,0.805198
1315442729206,0.807118
1315442789206,0.810081
1315442849206,0.803343
1315442909206,0.802733
1315442969206,0.795025
1315443029206,0.800144
1315443089206,0.803601
1315443149206,0.796778
1315443209206,0.793948
1315443269206,0.796660
1315443329206,0.789583
1315443389206,0.786465
1315443449206,0.788279
1315443509206,0.779355
1315443569206,0.781787
1315443629216,0.795889
1315443689216,0.785311
1315443749216,0.781767
1315443809216,0.789215
1315443869216,0.789403
1315443929216,0.781252
1315443989216,0.776632
1315444049216,0.776419
1315444109216,0.778549
1315444169216,0.781311
1315444229216,0.775351
1315444289216,0.775556
1315444349216,0.774674
1315444409216,0.776746
1315444469216,0.771399
1315444529216,0.775206
1315444589216,0.776420
1315444649216,0.768102
1315444709216,0.775321
1315444769216,0.763250
1315444829216,0.765009
1315444889216,0.772356
1315444949216,0.766800
1315445009216,0.766529
1315445069216,0.764132
1315445129216,0.763437
1315445189216,0.762523
1315445249216,0.762396
1315445309216,0.765212
1315445369216,0.765099
1315445429216,0.769405
1315445489216,0.755774
1315445549216,0.765435
1315445609216,0.769369
1315445669216,0.765419
1315445729216,0.758493
1315445789216,0.754993
1315445849216,0.758593
1315445909216,0.760836
1315445969216,0.761841
1315446029216,0.761234
1315446089216,0.764933
1315446149216,0.765153
1315446209216,0.761394
1315446269216,0.758679
1315446329216,0.756988
1315446389216,0.759146
1315446449216,0.760391
1315446509216,0.762475
1315446569216,0.759401
1315446629216,0.753592
1315446689216,0.759718
1315446749216,0.757438
1315446809216,0.760998
1315446869216,0.754057
1315446929216,0.754592
1315446989216,0.755203
1315447049216,0.755688
1315447109216,0.756064
1315447169216,0.752008
1315447229226,0.760952
1315447289226,0.758471
1315447349226,0.752825
1315447409226,0.749377
1315447469226,0.755064
1315447529226,0.757653
1315447589226,0.751549
1315447649226,0.748406
1315447709226,0.752057
1315447769226,0.750588
1315447829226,0.753208
1315447889226,0.745377
1315447949226,0.751161
1315448009226,0.753113
1315448069226,0.751076
1315448129226,0.755391
1315448189226,0.752528
1315448249226,0.745847
1315448309226,0.744019
1315448369226,0.747089
1315448429226,0.750128
1315448489226,0.754704
1315448549226,0.746283
1315448609226,0.757958
1315448669226,0.753457
1315448729226,0.743353
1315448789226,0.745090
1315448849226,0.751090
1315448909226,0.751072
1315448969226,0.757222
1315449029226,0.751553
1315449089226,0.750491
1315449149226,0.746290
1315449209226,0.750178
1315449269226,0.740707
1315449329226,0.746975
1315449389226,0.743041
1315449449226,0.740240
1315449509226,0.748083
1315449569226,0.743885
1315449629226,0.740362
1315449689226,0.750584
1315449749226,0.741241
1315449809226,0.745571
1315449869226,0.739064
1315449929226,0.756274
1315449989226,0.746734
1315450049226,0.739531
1315450109226,0.746248
1315450169226,0.742878
1315450229226,0.739225
1315450289226,0.746975
1315450349226,0.739479
1315450409226,0.739831
1315450469226,0.741192
1315450529226,0.745265
1315450589226,0.739535
1315450649226,0.739576
1315450709226,0.738424
1315450769226,0.734169
1315450829235,0.735686
1315450889235,0.737815
1315450949235,0.745931
1315451009235,0.745522
1315451069235,0.738974
1315451129235,0.742494
1315451189235,0.741505
1315451249235,0.735966
1315451309235,0.738764
1315451369235,0.740645
1315451429235,0.739267
1315451489235,0.738522
1315451549236,0.738138
1315451609236,0.738244
1315451669236,0.741182
1315451729235,0.740306
1315451789235,0.740966
1315451849235,0.743915
1315451909235,0.742398
1315451969235,0.739728
1315452029235,0.740553
1315452089235,0.737314
1315452149235,0.742045
1315452209235,0.737991
1315452269235,0.733347
1315452329235,0.735586
1315452389235,0.741034
1315452449235,0.739954
1315452509235,0.745757
1315452569235,0.741795
1315452629235,0.735540
1315452689235,0.737536
1315452749235,0.740708
1315452809235,0.741451
1315452869235,0.737027
1315452929236,0.731853
1315452989236,0.735574
1315453049235,0.737961
1315453109235,0.748576
1315453169235,0.740613
1315453229235,0.737140
1315453289235,0.742220
1315453349235,0.738429
1315453409235,0.740111
1315453469235,0.743148
1315453529235,0.742905
1315453589235,0.742618
1315453649235,0.741209
1315453709235,0.739848
1315453769235,0.743765
1315453829235,0.736286
1315453889235,0.748617
1315453949235,0.744927
1315454009235,0.745146
1315454069235,0.746354
1315454129235,0.745902
1315454189235,0.749335
1315454249236,0.748882
1315454309236,0.744023
1315454369236,0.749031
1315454429245,0.747535
1315454489245,0.744040
1315454549245,0.741221
1315454609245,0.738659
1315454669245,0.742698
1315454729245,0.745219
1315454789245,0.744043
1315454849245,0.745007
1315454909245,0.741393
1315454969245,0.738517
1315455029245,0.741633
1315455089245,0.739396
1315455149245,0.745424
1315455209245,0.743294
1315455269245,0.744283
1315455329245,0.734547
1315455389245,0.740325
1315455449245,0.740448
1315455509245,0.731728
1315455569245,0.743852
1315455629245,0.740192
1315455689245,0.745679
1315455749245,0.747249
1315455809245,0.738481
1315455869245,0.743685
1315455929245,0.752084
1315455989245,0.742965
1315456049245,0.737807
1315456109245,0.740649
1315456169245,0.730516
1315456229245,0.741196
1315456289245,0.741689
1315456349245,0.743667
1315456409245,0.739375
1315456469245,0.737844
1315456529245,0.743501
1315456589245,0.739879
1315456649245,0.745046
1315456709245,0.746920
1315456769245,0.744488
1315456829245,0.744388
1315456889245,0.736514
1315456949245,0.742964
1315457009245,0.735287
1315457069245,0.739829
1315457129245,0.741692
1315457189245,0.742682
1315457249245,0.731873
1315457309245,0.735431
1315457369245,0.736395
1315457429245,0.737923
1315457489245,0.739899
1315457549245,0.736445
1315457609245,0.741792
1315457669245,0.751339
1315457729245,0.735396
1315457789245,0.742807
1315457849245,0.734132
1315457909245,0.732883
1315457969245,0.736429
1315458029255,0.739431
1315458089255,0.737460
1315458149255,0.730926
1315458209255,0.739244
1315458269255,0.745962
1315458329254,0.740944
1315458389254,0.745216
1315458449254,0.744799
1315458509254,0.744154
1315458569255,0.747018
1315458629255,0.743383
1315458689255,0.744627
1315459229255,0.741187
1315459289255,0.734560
1315459349255,0.731118
1315459409255,0.731282
1315459469255,0.731720
1315459529255,0.728951
1315459589255,0.732809
1315459649254,0.735868
1315459709254,0.723233
1315459769254,0.734280
1315459829254,0.734882
1315459889255,0.734742
1315459949255,0.735244
1315460009255,0.727870
1315460069255,0.737142
1315460129255,0.744848
1315460189255,0.738549
1315460249255,0.731451
1315460309255,0.731102
1315460369255,0.735828
1315460429255,0.731299
1315460489255,0.738073
1315460549255,0.735221
1315460609255,0.743628
1315460669255,0.737079
1315460729255,0.730051
1315460789255,0.730892
1315460849255,0.731243
1315460909255,0.735446
1315460969255,0.733317
1315461029254,0.734481
1315461089254,0.731997
1315461149254,0.737455
1315461209254,0.732959
1315461269255,0.735457
1315461329255,0.732034
1315461389255,0.733358
1315461449255,0.725552
1315461509255,0.740618
1315461569255,0.730726
1315461629264,0.732178
1315461689264,0.734511
1315461749264,0.734387
1315461809264,0.739586
1315461869264,0.736039
1315461929264,0.735033
1315461989264,0.741817
1315462049264,0.740301
1315462109264,0.740210
1315462169264,0.743679
1315462229264,0.738623
1315462289264,0.740955
1315462349264,0.740270
1315462409264,0.737936
1315462469264,0.742900
1315462529264,0.738132
1315462589264,0.734692
1315462649264,0.734542
1315462709264,0.737445
1315462769264,0.737660
1315462829264,0.729029
1315462889264,0.732362
1315462949264,0.732015
1315463009264,0.731513
1315463069264,0.738699
1315463129264,0.736303
1315463189264,0.737039
1315463249264,0.733129
1315463309264,0.737157
1315463369264,0.729948
1315463429264,0.725543
1315463489264,0.732503
1315463549264,0.735457
1315463609264,0.735805
1315463669264,0.739781
1315463729264,0.734483
1315463789264,0.737585
1315463849264,0.733742
1315463909264,0.727996
1315463969264,0.733771
1315464029264,0.730458
1315464089264,0.729093
1315464149264,0.735782
1315464209264,0.735655
1315464269264,0.736702
1315464329264,0.738666
1315464389264,0.731748
1315464449264,0.739965
1315464509264,0.731038
1315464569264,0.734316
1315464629264,0.736251
1315464689264,0.731472
1315464749264,0.732762
1315464809264,0.742274
1315464869264,0.736296
1315464929264,0.737609
1315464989264,0.730467
1315465049264,0.740204
1315465109264,0.735422
1315465169264,0.729088
1315465229274,0.734176
1315465289274,0.735562
1315465349274,0.731287
1315465409274,0.729427
1315465469274,0.732890
1315465529274,0.733735
1315465589274,0.734129
1315465649274,0.732857
1315465709274,0.726431
1315465769274,0.735118
1315465829274,0.734362
1315465889274,0.735973
1315465949274,0.736319
1315466009274,0.735296
1315466069274,0.729542
1315466129274,0.738014
1315466189274,0.731932
1315466249274,0.732369
1315466309274,0.731685
1315466369274,0.732802
1315466429274,0.735197
1315466489274,0.735853
1315466549274,0.734608
1315466609274,0.730524
1315466669274,0.728441
1315466729274,0.733670
1315466789274,0.729958
1315466849274,0.732862
1315466909274,0.736851
1315466969274,0.730823
1315467029274,0.737063
1315467089274,0.729313
1315467149274,0.730654
1315467209274,0.739533
1315467269274,0.730245
1315467329274,0.742294
1315467389274,0.738158
1315467449274,0.741527
1315467509274,0.734002
1315467569274,0.733683
1315467629274,0.733328
1315467689274,0.733152
1315467749274,0.734533
1315467809274,0.733547
1315467869274,0.733086
1315467929274,0.732260
1315467989274,0.735442
1315468049274,0.736858
1315468109274,0.738595
1315468169274,0.729532
1315468229274,0.734838
1315468289274,0.738542
1315468349274,0.737207
1315468409274,0.739459
1315468469274,0.728646
1315468529274,0.732818
1315468589274,0.727703
1315468649274,0.735701
1315468709274,0.734748
1315468769274,0.733028
1315468829284,0.742985
1315468889284,0.729646
1315468949284,0.734982
1315469009284,0.732423
1315469069284,0.730936
1315469129284,0.738979
1315469189284,0.734983
1315469249284,0.735986
1315469309284,0.731556
1315469369284,0.737409
1315469429284,0.728537
1315469489284,0.736825
1315469549284,0.738754
1315469609284,0.731943
1315469669284,0.740150
1315469729284,0.733812
1315469789284,0.735653
1315469849284,0.730604
1315469909284,0.738295
1315469969284,0.730143
1315470029284,0.729737
1315470089284,0.733523
1315470149284,0.730927
1315470209284,0.732177
1315470269284,0.733007
1315470329284,0.734921
1315470389284,0.728588
1315470449284,0.730781
1315470509284,0.733179
1315470569284,0.724435
1315470629284,0.730499
1315470689284,0.736551
1315470749284,0.728609
1315470809284,0.730632
1315470869284,0.730291
1315470929284,0.724749
1315470989284,0.729726
1315471049284,0.725833
1315471109284,0.730183
1315471169284,0.731763
1315471229284,0.719701
1315471289284,0.727833
1315471349284,0.734381
1315471409284,0.728563
1315471469284,0.735296
1315471529284,0.731856
1315471589284,0.734399
1315471649284,0.734364
1315471709284,0.727262
1315471769284,0.733089
1315471829284,0.735676
1315471889284,0.734129
1315471949284,0.738850
1315472009284,0.727893
1315472069284,0.735071
1315472129284,0.736235
1315472189284,0.732155
1315472249284,0.734682
1315472309284,0.737739
1315472369284,0.738326
1315472429294,0.730397
1315472489294,0.738104
1315472549294,0.736951
1315472609294,0.734385
1315472669294,0.738753
1315472729294,0.740413
1315472789294,0.737849
1315472849294,0.740732
1315472909294,0.735621
1315472969294,0.732944
1315473029294,0.735006
1315473089294,0.733440
1315473149294,0.743601
1315473209294,0.733199
1315473269294,0.743752
1315473329294,0.738788
1315473389294,0.738491
1315473449294,0.733356
1315473509294,0.732984
1315473569294,0.736227
1315473629294,0.731390
1315473689294,0.731986
1315473749294,0.731877
1315473809294,0.730293
1315473869294,0.741824
1315473929294,0.727279
1315473989294,0.729125
1315474049294,0.731804
1315474109294,0.731446
1315474169294,0.728510
1315474229294,0.736369
1315474289294,0.731303
1315474349294,0.732427
1315474409294,0.735574
1315474469294,0.737108
1315474529294,0.739966
1315474589294,0.738871
1315474649294,0.732672
1315474709294,0.738110
1315474769294,0.737530
1315474829294,0.740699
1315474889294,0.734797
1315474949294,0.734371
1315475009294,0.745716
1315475069294,0.735951
1315475129294,0.739654
1315475189294,0.735681
1315475249294,0.742922
1315475309294,0.746442
1315475369294,0.742317
1315475429294,0.742198
1315475489294,0.741871
1315475549294,0.746475
1315475609294,0.742119
1315475669294,0.741756
1315475729294,0.742339
1315475789294,0.734639
1315475849294,0.736134
1315475909294,0.737363
1315475969294,0.744717
1315476029304,0.741218
1315476089304,0.738680
1315476149304,0.743709
1315476209304,0.741649
1315476269304,0.743182
1315476329304,0.744830
1315476389304,0.738584
1315476449304,0.738028
1315476509304,0.737159
1315476569304,0.742387
1315476629304,0.737719
1315476689304,0.741951
1315476749304,0.736396
1315476809304,0.741753
1315476869304,0.741628
1315476929304,0.747198
1315476989304,0.739345
1315477049304,0.745796
1315477109304,0.748318
1315477169304,0.738916
1315477229304,0.739823
1315477289304,0.735344
1315477349304,0.745010
1315477409304,0.742331
1315477469304,0.734466
1315477529304,0.747886
1315477589304,0.732656
1315477649304,0.737529
1315477709304,0.745731
1315477769304,0.746039
1315477829304,0.738085
1315477889304,0.734533
1315477949304,0.748359
1315478009304,0.746121
1315478069304,0.744709
1315478129304,0.739725
1315478189304,0.747325
1315478249304,0.744184
1315478309304,0.742926
1315478369304,0.745231
1315478429304,0.738513
1315478489304,0.748005
1315478549304,0.746363
1315478609304,0.750219
1315478669304,0.757501
1315478729304,0.756768
1315478789304,0.761641
1315478849304,0.768841
1315478909304,0.776683
1315478969304,0.775420
1315479029304,0.776857
1315479089304,0.781767
1315479149304,0.790660
1315479209304,0.782147
1315479269304,0.779260
1315479329304,0.781524
1315479389304,0.772777
1315479449304,0.781182
1315479509304,0.774070
1315479569304,0.772381
1315479629314,0.776977
1315479689314,0.768909
1315479749314,0.761434
1315479809314,0.766804
1315479869314,0.765815
1315479929314,0.765315
1315479989314,0.763321
1315480049314,0.757888
1315480109314,0.758580
1315480169314,0.770678
1315480229314,0.763300
1315480289314,0.751166
1315480349314,0.754815
1315480409314,0.754805
1315480469314,0.751362
1315480529314,0.750593
1315480589314,0.762250
1315480649314,0.751408
1315480709314,0.751495
1315480769314,0.750803
1315480829314,0.750363
1315480889314,0.746211
1315480949314,0.758225
1315481009314,0.744271
1315481069314,0.749373
1315481129314,0.751867
1315481189314,0.744694
1315481249314,0.748684
1315481309314,0.739848
1315481369314,0.751518
1315481429314,0.742940
1315481489314,0.749006
1315481549314,0.742520
1315481609314,0.747939
1315481669314,0.743017
1315481729314,0.750729
1315481789314,0.739662
1315481849314,0.744250
1315481909314,0.743383
1315481969314,0.738749
1315482029314,0.741830
1315482089314,0.738289
1315482149314,0.741215
1315482209314,0.751076
1315482269314,0.736797
1315482329314,0.742268
1315482389314,0.739729
1315482449314,0.748384
1315482509314,0.744755
1315482569314,0.748329
1315482629314,0.738080
1315482689314,0.745305
1315482749314,0.737092
1315482809314,0.745860
1315482869314,0.743023
1315482929314,0.740664
1315482989314,0.740309
1315483049314,0.745732
1315483109314,0.735299
1315483169314,0.737315
1315483229325,0.739277
1315483289325,0.740754
1315483349325,0.738967
1315483409325,0.740103
1315483469325,0.739815
1315483529325,0.739564
1315483589325,0.732777
1315483649325,0.739871
1315483709325,0.736546
1315483769325,0.736299
1315483829325,0.729270
1315483889325,0.734407
1315483949325,0.735295
1315484009325,0.736335
1315484069325,0.728433
1315484129325,0.732447
1315484189325,0.724835
1315484249325,0.734967
1315484309325,0.730643
1315484369325,0.737794
1315484429325,0.728041
1315484489325,0.728397
1315484549325,0.728631
1315484609325,0.732415
1315484669325,0.734297
1315484729325,0.734416
1315484789325,0.727491
1315484849325,0.730359
1315484909325,0.730610
1315484969325,0.735992
1315485029325,0.733650
1315485089325,0.726210
1315485149325,0.731734
1315485209325,0.729580
1315485269325,0.733403
1315485329325,0.728626
1315485389325,0.735005
1315485449325,0.729074
1315485509325,0.732239
1315485569325,0.731288
1315485629325,0.729511
1315485689325,0.730762
1315485749325,0.727536
1315485809325,0.726633
1315485869325,0.731512
1315485929325,0.720581
1315485989325,0.726506
1315486049325,0.720747
1315486109325,0.728301
1315486169325,0.723992
1315486229325,0.723501
1315486289325,0.731070
1315486349325,0.723172
1315486409325,0.722286
1315486469325,0.728174
1315486529325,0.722380
1315486589325,0.725087
1315486649325,0.718054
1315486709325,0.730524
1315486769325,0.719882
1315486829335,0.720702
1315486889335,0.721856
1315486949335,0.720070
1315487009335,0.730788
1315487069335,0.718532
1315487129335,0.724107
1315487189335,0.718969
1315487249335,0.731235
1315487309335,0.724699
1315487369335,0.720158
1315487429335,0.726115
1315487489335,0.717180
1315487549335,0.724429
1315487609335,0.725777
1315487669335,0.730359
1315487729335,0.725652
1315487789335,0.726015
1315487849335,0.731885
1315487909335,0.719479
1315487969335,0.719097
1315488029335,0.726202
1315488089335,0.725029
1315488149335,0.721439
1315488209335,0.725723
1315488269335,0.725038
1315488329335,0.731830
1315488389335,0.725633
1315488449335,0.723961
1315488509335,0.724262
1315488569335,0.725208
1315488629335,0.719213
1315488689335,0.723502
1315488749335,0.729435
1315488809335,0.721100
1315488869335,0.733337
1315488929335,0.725345
1315488989335,0.724542
1315489049335,0.728207
1315489109335,0.719685
1315489169335,0.725432
1315489229335,0.733178
1315489289335,0.726419
1315489349335,0.727484
1315489409335,0.724997
1315489469335,0.719529
1315489529335,0.721809
1315489589335,0.725714
1315489649335,0.718420
1315489709335,0.731843
1315489769335,0.725598
1315489829335,0.729636
1315489889335,0.730737
1315489949335,0.722744
1315490009335,0.728413
1315490069335,0.725208
1315490129335,0.724930
1315490189335,0.726494
1315490249335,0.724301
1315490309335,0.727145
1315490369335,0.730393
1315490429346,0.730299
1315490489346,0.731339
1315490549346,0.722428
1315490609346,0.726123
1315490669346,0.726881
1315490729346,0.726852
1315490789346,0.726181
1315490849346,0.723617
1315490909346,0.728884
1315490969346,0.727816
1315491029346,0.727312
1315491089346,0.729839
1315491149346,0.721627
1315491209346,0.725242
1315491269346,0.726768
1315491329346,0.727083
1315491389346,0.734465
1315491449346,0.726640
1315491509346,0.728048
1315491569346,0.729062
1315491629346,0.725451
1315491689346,0.732920
1315491749346,0.729733
1315491809346,0.729230
1315491869346,0.730488
1315491929346,0.731094
1315491989346,0.730417
1315492049346,0.731028
1315492109346,0.726668
1315492169346,0.727978
1315492229346,0.731088
1315492289346,0.729680
1315492349346,0.725698
1315492409346,0.728234
1315492469346,0.735047
1315492529346,0.726828
1315492589346,0.727281
1315492649346,0.738117
1315492709346,0.726908
1315492769346,0.730610
1315492829346,0.739707
1315492889346,0.727524
1315492949346,0.731810
1315493009346,0.736447
1315493069346,0.734934
1315493129346,0.734861
1315493189346,0.737840
1315493249346,0.733128
1315493309346,0.736715
1315493369346,0.737190
1315493429346,0.742333
1315493489346,0.737374
1315493549346,0.744173
1315493609346,0.750240
1315493669346,0.741504
1315493729346,0.749624
1315493789346,0.751227
1315493849346,0.742546
1315493909346,0.738027
1315493969346,0.734976
1315494029357,0.739784
1315494089357,0.740631
1315494149357,0.733314
1315494209357,0.739592
1315494269357,0.737284
1315494329357,0.740076
1315494389357,0.734343
1315494449357,0.730336
1315494509357,0.738557
1315494569357,0.735144
1315494629357,0.736481
1315494689357,0.731151
1315494749357,0.740598
1315494809357,0.734311
1315494869357,0.729533
1315494929357,0.729666
1315494989357,0.732905
1315495049357,0.727689
1315495109357,0.727326
1315495169357,0.730822
1315495229357,0.738120
1315495289357,0.733206
1315495349357,0.727383
1315495409357,0.729659
1315495469357,0.733940
1315495529357,0.726655
1315495589357,0.734368
1315495649357,0.739234
1315495709357,0.742412
1315495769357,0.732735
1315495829357,0.733039
1315495889357,0.730034
1315495949357,0.737346
1315496009357,0.734942
1315496069357,0.747177
1315496129357,0.751675
1315496189357,0.764601
1315496249357,0.812522
1315496309357,0.869249
1315496369357,0.974600
1315496429357,1.08308
1315496489357,1.17609
1315496549357,1.32819
1315496609357,1.36351
1315496669357,1.26301
1315496729357,1.29746
1315496789357,1.44312
1315496849357,1.54855
1315496909357,1.54278
1315496969357,1.54647
1315497029357,1.54430
1315497089357,1.54325
1315497149357,1.50333
1315497209357,1.42672
1315497269357,1.36804
1315497329357,1.30786
1315497389357,1.26449
1315497449357,1.24042
1315497509357,1.20038
1315497569357,1.18265
1315497629368,1.15731
1315497689368,1.14423
1315497749368,1.11324
1315497809368,1.09176
1315497869368,1.07049
1315497929368,1.04400
1315497989368,1.02332
1315498049368,0.996774
1315498109368,0.971021
1315498169368,0.945727
1315498229368,0.945633
1315498289368,0.923836
1315498349368,0.907987
1315498409368,0.894151
1315498469368,0.882144
1315498529368,0.877261
1315498589368,0.868984
1315498649368,0.863332
1315498709368,0.861278
1315498769368,0.853199
1315498829368,0.850391
1315498889368,0.842586
1315498949368,0.853210
1315499009368,0.835521
1315499069368,0.835500
1315499129368,0.831964
1315499189368,0.833201
1315499249368,0.820650
1315499309368,0.818821
1315499369368,0.823101
1315499429368,0.820835
1315499489368,0.817686
1315499549368,0.808998
1315499609368,0.808696
1315499669368,0.816526
1315499729368,0.810106
1315499789368,0.805225
1315499849368,0.807055
1315499909368,0.810524
1315499969368,0.799974
1315500029368,0.796449
1315500089368,0.797417
1315500149368,0.796096
1315500209368,0.796849
1315500269368,0.803268
1315500329368,0.792570
1315500389368,0.795371
1315500449368,0.795666
1315500509368,0.793172
1315500569368,0.798824
1315500629368,0.797108
1315500689368,0.792303
1315500749368,0.799707
1315500809368,0.793528
1315500869368,0.787542
1315500929368,0.785941
1315500989368,0.788707
1315501049368,0.790936
1315501109368,0.793294
1315501169368,0.791240
1315501229379,0.789918
1315501289379,0.789367
1315501349379,0.785842
1315501409379,0.784860
1315501469379,0.795161
1315501529379,0.783097
1315501589379,0.788729
1315501649379,0.787131
1315501709379,0.790136
1315501769379,0.787126
1315501829379,0.787442
1315501889379,0.774411
1315501949379,0.784567
1315502009379,0.780260
1315502069379,0.775636
1315502129379,0.777487
1315502189379,0.775684
1315502249379,0.775538
1315502309379,0.777713
1315502369379,0.774133
1315502429379,0.774135
1315502489379,0.776523
1315502549379,0.776839
1315502609379,0.774869
1315502669379,0.771957
1315502729379,0.772645
1315502789379,0.778743
1315502849379,0.767211
1315502909379,0.772002
1315502969379,0.777349
1315503029379,0.766171
1315503089379,0.771362